Weather History for Juneau, AK

Change the Weather History Date:

Monday, May 26, 2014

  Actual Average Record
Temperature  
Mean Temperature 52 °F 51 °F  
Max Temperature 66 °F 59 °F 78 °F (1947)
Min Temperature 37 °F 43 °F 31 °F (2000)
Degree Days  
Heating Degree Days 13 14  
Month to date heating degree days 319 443  
Since 1 July heating degree days 7703 7971  
Cooling Degree Days 0 0  
Month to date cooling degree days 0 0  
Year to date cooling degree days 0 0  
Moisture  
Dew Point 37 °F    
Average Humidity 60    
Maximum Humidity 92    
Minimum Humidity 28    
Precipitation  
Precipitation 0.00 in 0.11 in 1.36 in (1981)
Month to date precipitation 1.20 2.85  
Year to date precipitation 19.45 19.05  
Sea Level Pressure  
Sea Level Pressure 30.05 in    
Wind  
Wind Speed 7 mph (West)    
Max Wind Speed 17 mph    
Max Gust Speed 19 mph    
Visibility 10 miles    
Events      
T = Trace of Precipitation, MM = Missing Value Source: NWS Daily Summary

Daily Weather History Graph

Daily Weather History Graph

Search for Another Location

Airport:

Trip Planner

Search our weather history database for the weather conditions in past years. The results will help you decide how hot, cold, wet, or windy it might be!

Date:

Astronomy

May. 26, 2014 Rise Set
Actual Time 4:10 AM AKDT 9:41 PM AKDT
Civil Twilight 3:06 AM AKDT 10:46 PM AKDT
Nautical Twilight 1:27 AM AKDT 12:23 AM AKDT
Astronomical Twilight Sun does not rise Sun does not rise
Moon 3:36 AM AKDT (5/26) 7:20 PM AKDT (5/26)
Length of Visible Light 19h 40m
Length of Day
17h 30m
Waning Crescent, 4% of the Moon is Illuminated
May 26
Waning Crescent
May 28
New
Jun 5
First Quarter
Jun 12
Full
Jun 19
Last Quarter

Hourly Weather History & Observations

Time (AKDT) Temp. Dew Point Humidity Pressure Visibility Wind Dir Wind Speed Gust Speed Precip Events Conditions
12:53 AM 44.6 °F 35.6 °F 71% 29.96 in 10.0 mi Calm Calm - N/A   Partly Cloudy
1:53 AM 43.0 °F 36.0 °F 76% 29.97 in 10.0 mi Calm Calm - N/A   Partly Cloudy
2:53 AM 39.9 °F 37.0 °F 89% 29.97 in 10.0 mi Calm Calm - N/A   Partly Cloudy
3:53 AM 39.2 °F 35.6 °F 87% 29.98 in 10.0 mi Calm Calm - N/A   Partly Cloudy
4:53 AM 39.0 °F 34.0 °F 82% 29.99 in 10.0 mi Calm Calm - N/A   Scattered Clouds
5:53 AM 42.1 °F 36.0 °F 79% 30.00 in 10.0 mi Calm Calm - N/A   Scattered Clouds
6:53 AM 46.9 °F 37.0 °F 68% 30.01 in 10.0 mi Calm Calm - N/A   Scattered Clouds
7:53 AM 52.0 °F 36.0 °F 54% 30.01 in 10.0 mi West 3.5 mph - N/A   Scattered Clouds
8:53 AM 55.0 °F 41.0 °F 59% 30.02 in 10.0 mi WSW 8.1 mph - N/A   Scattered Clouds
9:53 AM 57.0 °F 39.9 °F 53% 30.03 in 10.0 mi West 8.1 mph - N/A   Partly Cloudy
10:53 AM 57.2 °F 39.2 °F 51% 30.03 in 10.0 mi WSW 11.5 mph - N/A   Scattered Clouds
11:53 AM 60.1 °F 37.9 °F 44% 30.04 in 10.0 mi SW 11.5 mph - N/A   Scattered Clouds
12:53 PM 63.0 °F 33.1 °F 33% 30.05 in 10.0 mi West 10.4 mph - N/A   Scattered Clouds
1:53 PM 64.0 °F 33.1 °F 31% 30.06 in 10.0 mi West 10.4 mph - N/A   Scattered Clouds
2:53 PM 64.9 °F 30.0 °F 27% 30.06 in 10.0 mi West 11.5 mph - N/A   Scattered Clouds
3:53 PM 64.9 °F 35.1 °F 33% 30.06 in 10.0 mi West 12.7 mph - N/A   Scattered Clouds
4:20 PM 64.0 °F 37.9 °F 38% 30.06 in 10.0 mi WSW 12.7 mph - N/A   Scattered Clouds
4:53 PM 64.0 °F 37.9 °F 38% 30.07 in 10.0 mi WSW 12.7 mph - N/A   Scattered Clouds
5:53 PM 63.0 °F 41.0 °F 45% 30.08 in 10.0 mi WSW 13.8 mph - N/A   Scattered Clouds
6:53 PM 60.1 °F 41.0 °F 49% 30.09 in 10.0 mi NW 8.1 mph - N/A   Scattered Clouds
7:53 PM 59.0 °F 41.0 °F 51% 30.10 in 10.0 mi NW 10.4 mph - N/A   Scattered Clouds
8:53 PM 55.9 °F 39.9 °F 55% 30.12 in 10.0 mi NW 8.1 mph - N/A   Mostly Cloudy
9:53 PM 55.0 °F 39.9 °F 57% 30.14 in 10.0 mi NW 8.1 mph - N/A   Mostly Cloudy
10:53 PM 54.0 °F 39.9 °F 59% 30.16 in 10.0 mi NW 10.4 mph - N/A   Overcast
11:53 PM 51.1 °F 39.9 °F 66% 30.17 in 10.0 mi WNW 6.9 mph - N/A   Mostly Cloudy